Year,Month,Day,Hour,Minute,Value (Times are PST for temperature in C)
2013,08,23,00,00,17.00
2013,08,23,00,01,17.00
2013,08,23,00,02,16.90
2013,08,23,00,03,16.90
2013,08,23,00,04,16.80
2013,08,23,00,05,16.80
2013,08,23,00,06,16.80
2013,08,23,00,07,16.70
2013,08,23,00,08,16.70
2013,08,23,00,09,16.60
2013,08,23,00,10,16.60
2013,08,23,00,11,16.60
2013,08,23,00,12,16.50
2013,08,23,00,13,16.50
2013,08,23,00,14,16.40
2013,08,23,00,15,16.40
2013,08,23,00,16,16.40
2013,08,23,00,17,16.40
2013,08,23,00,18,16.30
2013,08,23,00,19,16.30
2013,08,23,00,20,16.30
2013,08,23,00,21,16.30
2013,08,23,00,22,16.30
2013,08,23,00,23,16.20
2013,08,23,00,24,16.20
2013,08,23,00,25,16.20
2013,08,23,00,26,16.20
2013,08,23,00,27,16.20
2013,08,23,00,28,16.10
2013,08,23,00,29,16.10
2013,08,23,00,30,16.10
2013,08,23,00,31,16.10
2013,08,23,00,32,16.00
2013,08,23,00,33,16.00
2013,08,23,00,34,16.00
2013,08,23,00,35,15.90
2013,08,23,00,36,15.90
2013,08,23,00,37,15.80
2013,08,23,00,38,15.80
2013,08,23,00,39,15.80
2013,08,23,00,40,15.80
2013,08,23,00,41,15.80
2013,08,23,00,42,15.80
2013,08,23,00,43,15.80
2013,08,23,00,44,15.80
2013,08,23,00,45,15.80
2013,08,23,00,46,15.80
2013,08,23,00,47,15.80
2013,08,23,00,48,15.80
2013,08,23,00,49,15.70
2013,08,23,00,50,15.70
2013,08,23,00,51,15.70
2013,08,23,00,52,15.70
2013,08,23,00,53,15.60
2013,08,23,00,54,15.60
2013,08,23,00,55,15.60
2013,08,23,00,56,15.60
2013,08,23,00,57,15.60
2013,08,23,00,58,15.60
2013,08,23,00,59,15.60
2013,08,23,01,00,15.60
2013,08,23,01,01,15.60
2013,08,23,01,02,15.60
2013,08,23,01,03,15.60
2013,08,23,01,04,15.60
2013,08,23,01,05,15.70
2013,08,23,01,06,15.70
2013,08,23,01,07,15.70
2013,08,23,01,08,15.70
2013,08,23,01,09,15.70
2013,08,23,01,10,15.70
2013,08,23,01,11,15.70
2013,08,23,01,12,15.70
2013,08,23,01,13,15.70
2013,08,23,01,14,15.70
2013,08,23,01,15,15.70
2013,08,23,01,16,15.60
2013,08,23,01,17,15.60
2013,08,23,01,18,15.60
2013,08,23,01,19,15.60
2013,08,23,01,20,15.60
2013,08,23,01,21,15.60
2013,08,23,01,22,15.60
2013,08,23,01,23,15.60
2013,08,23,01,24,15.50
2013,08,23,01,25,15.50
2013,08,23,01,26,15.50
2013,08,23,01,27,15.40
2013,08,23,01,28,15.40
2013,08,23,01,29,15.40
2013,08,23,01,30,15.40
2013,08,23,01,31,15.30
2013,08,23,01,32,15.30
2013,08,23,01,33,15.20
2013,08,23,01,34,15.20
2013,08,23,01,35,15.20
2013,08,23,01,36,15.10
2013,08,23,01,37,15.00
2013,08,23,01,38,15.00
2013,08,23,01,39,15.00
2013,08,23,01,40,15.00
2013,08,23,01,41,15.00
2013,08,23,01,42,15.00
2013,08,23,01,43,15.00
2013,08,23,01,44,15.00
2013,08,23,01,45,15.00
2013,08,23,01,46,15.00
2013,08,23,01,47,15.00
2013,08,23,01,48,15.00
2013,08,23,01,49,15.00
2013,08,23,01,50,15.00
2013,08,23,01,51,15.00
2013,08,23,01,52,15.00
2013,08,23,01,53,15.00
2013,08,23,01,54,15.00
2013,08,23,01,55,15.00
2013,08,23,01,56,15.00
2013,08,23,01,57,15.00
2013,08,23,01,58,15.00
2013,08,23,01,59,15.00
2013,08,23,02,00,15.00
2013,08,23,02,01,15.00
2013,08,23,02,02,15.00
2013,08,23,02,03,15.00
2013,08,23,02,04,15.00
2013,08,23,02,05,15.00
2013,08,23,02,06,15.00
2013,08,23,02,07,15.00
2013,08,23,02,08,15.00
2013,08,23,02,09,15.00
2013,08,23,02,10,15.00
2013,08,23,02,11,15.00
2013,08,23,02,12,15.00
2013,08,23,02,13,15.00
2013,08,23,02,14,15.00
2013,08,23,02,15,15.00
2013,08,23,02,16,14.90
2013,08,23,02,17,14.90
2013,08,23,02,18,14.90
2013,08,23,02,19,14.80
2013,08,23,02,20,14.80
2013,08,23,02,21,14.80
2013,08,23,02,22,14.80
2013,08,23,02,23,14.80
2013,08,23,02,24,14.80
2013,08,23,02,25,14.80
2013,08,23,02,26,14.80
2013,08,23,02,27,14.80
2013,08,23,02,28,14.80
2013,08,23,02,29,14.80
2013,08,23,02,30,14.80
2013,08,23,02,31,14.80
2013,08,23,02,32,14.70
2013,08,23,02,33,14.70
2013,08,23,02,34,14.70
2013,08,23,02,35,14.80
2013,08,23,02,36,14.80
2013,08,23,02,37,14.80
2013,08,23,02,38,14.80
2013,08,23,02,39,14.80
2013,08,23,02,40,14.80
2013,08,23,02,41,14.80
2013,08,23,02,42,14.80
2013,08,23,02,43,14.70
2013,08,23,02,44,14.70
2013,08,23,02,45,14.70
2013,08,23,02,46,14.70
2013,08,23,02,47,14.70
2013,08,23,02,48,14.70
2013,08,23,02,49,14.70
2013,08,23,02,50,14.70
2013,08,23,02,51,14.70
2013,08,23,02,52,14.60
2013,08,23,02,53,14.60
2013,08,23,02,54,14.60
2013,08,23,02,55,14.60
2013,08,23,02,56,14.60
2013,08,23,02,57,14.60
2013,08,23,02,58,14.60
2013,08,23,02,59,14.60
2013,08,23,03,00,14.60
2013,08,23,03,01,14.60
2013,08,23,03,02,14.60
2013,08,23,03,03,14.70
2013,08,23,03,04,14.60
2013,08,23,03,05,14.70
2013,08,23,03,06,14.70
2013,08,23,03,07,14.60
2013,08,23,03,08,14.60
2013,08,23,03,09,14.60
2013,08,23,03,10,14.60
2013,08,23,03,11,14.60
2013,08,23,03,12,14.60
2013,08,23,03,13,14.60
2013,08,23,03,14,14.60
2013,08,23,03,15,14.50
2013,08,23,03,16,14.50
2013,08,23,03,17,14.50
2013,08,23,03,18,14.50
2013,08,23,03,19,14.50
2013,08,23,03,20,14.40
2013,08,23,03,21,14.40
2013,08,23,03,22,14.40
2013,08,23,03,23,14.40
2013,08,23,03,24,14.40
2013,08,23,03,25,14.40
2013,08,23,03,26,14.40
2013,08,23,03,27,14.40
2013,08,23,03,28,14.40
2013,08,23,03,29,14.40
2013,08,23,03,30,14.40
2013,08,23,03,31,14.40
2013,08,23,03,32,14.40
2013,08,23,03,33,14.40
2013,08,23,03,34,14.50
2013,08,23,03,35,14.50
2013,08,23,03,36,14.50
2013,08,23,03,37,14.50
2013,08,23,03,38,14.50
2013,08,23,03,39,14.50
2013,08,23,03,40,14.50
2013,08,23,03,41,14.50
2013,08,23,03,42,14.60
2013,08,23,03,43,14.60
2013,08,23,03,44,14.60
2013,08,23,03,45,14.60
2013,08,23,03,46,14.60
2013,08,23,03,47,14.60
2013,08,23,03,48,14.60
2013,08,23,03,49,14.60
2013,08,23,03,50,14.60
2013,08,23,03,51,14.60
2013,08,23,03,52,14.60
2013,08,23,03,53,14.60
2013,08,23,03,54,14.60
2013,08,23,03,55,14.60
2013,08,23,03,56,14.60
2013,08,23,03,57,14.60
2013,08,23,03,58,14.60
2013,08,23,03,59,14.60
2013,08,23,04,00,14.60
2013,08,23,04,01,14.60
2013,08,23,04,02,14.60
2013,08,23,04,03,14.60
2013,08,23,04,04,14.50
2013,08,23,04,05,14.50
2013,08,23,04,06,14.40
2013,08,23,04,07,14.40
2013,08,23,04,08,14.30
2013,08,23,04,09,14.30
2013,08,23,04,10,14.30
2013,08,23,04,11,14.20
2013,08,23,04,12,14.20
2013,08,23,04,13,14.10
2013,08,23,04,14,14.10
2013,08,23,04,15,14.10
2013,08,23,04,16,14.10
2013,08,23,04,17,14.10
2013,08,23,04,18,14.00
2013,08,23,04,19,14.00
2013,08,23,04,20,14.00
2013,08,23,04,21,14.00
2013,08,23,04,22,14.00
2013,08,23,04,23,14.00
2013,08,23,04,24,14.00
2013,08,23,04,25,14.00
2013,08,23,04,26,14.00
2013,08,23,04,27,14.00
2013,08,23,04,28,14.00
2013,08,23,04,29,14.00
2013,08,23,04,30,14.00
2013,08,23,04,31,14.00
2013,08,23,04,32,14.00
2013,08,23,04,33,14.00
2013,08,23,04,34,14.00
2013,08,23,04,35,14.00
2013,08,23,04,36,14.00
2013,08,23,04,37,14.00
2013,08,23,04,38,14.00
2013,08,23,04,39,14.00
2013,08,23,04,40,14.00
2013,08,23,04,41,14.00
2013,08,23,04,42,14.00
2013,08,23,04,43,14.00
2013,08,23,04,44,14.00
2013,08,23,04,45,14.00
2013,08,23,04,46,13.90
2013,08,23,04,47,13.90
2013,08,23,04,48,13.90
2013,08,23,04,49,13.90
2013,08,23,04,50,14.00
2013,08,23,04,51,14.00
2013,08,23,04,52,14.00
2013,08,23,04,53,14.00
2013,08,23,04,54,14.00
2013,08,23,04,55,14.00
2013,08,23,04,56,14.00
2013,08,23,04,57,14.00
2013,08,23,04,58,13.90
2013,08,23,04,59,13.90
2013,08,23,05,00,13.90
2013,08,23,05,01,13.90
2013,08,23,05,02,13.90
2013,08,23,05,03,13.90
2013,08,23,05,04,13.90
2013,08,23,05,05,13.90
2013,08,23,05,06,13.90
2013,08,23,05,07,13.90
2013,08,23,05,08,13.90
2013,08,23,05,09,13.90
2013,08,23,05,10,13.90
2013,08,23,05,11,13.90
2013,08,23,05,12,13.80
2013,08,23,05,13,13.90
2013,08,23,05,14,13.90
2013,08,23,05,15,13.90
2013,08,23,05,16,13.90
2013,08,23,05,17,14.00
2013,08,23,05,18,14.00
2013,08,23,05,19,14.00
2013,08,23,05,20,14.10
2013,08,23,05,21,14.10
2013,08,23,05,22,14.20
2013,08,23,05,23,14.20
2013,08,23,05,24,14.30
2013,08,23,05,25,14.40
2013,08,23,05,26,14.50
2013,08,23,05,27,14.60
2013,08,23,05,28,14.60
2013,08,23,05,29,14.70
2013,08,23,05,30,14.70
2013,08,23,05,31,14.80
2013,08,23,05,32,14.90
2013,08,23,05,33,15.00
2013,08,23,05,34,15.00
2013,08,23,05,35,15.00
2013,08,23,05,36,15.10
2013,08,23,05,37,15.30
2013,08,23,05,38,15.30
2013,08,23,05,39,15.40
2013,08,23,05,40,15.50
2013,08,23,05,41,15.70
2013,08,23,05,42,15.80
2013,08,23,05,43,15.90
2013,08,23,05,44,16.00
2013,08,23,05,45,16.00
2013,08,23,05,46,16.10
2013,08,23,05,47,16.20
2013,08,23,05,48,16.30
2013,08,23,05,49,16.50
2013,08,23,05,50,16.60
2013,08,23,05,51,16.70
2013,08,23,05,52,16.80
2013,08,23,05,53,16.90
2013,08,23,05,54,17.10
2013,08,23,05,55,17.20
2013,08,23,05,56,17.30
2013,08,23,05,57,17.30
2013,08,23,05,58,17.40
2013,08,23,05,59,17.40
2013,08,23,06,00,17.50
2013,08,23,06,01,17.60
2013,08,23,06,02,17.60
2013,08,23,06,03,17.70
2013,08,23,06,04,17.70
2013,08,23,06,05,17.80
2013,08,23,06,06,17.80
2013,08,23,06,07,17.90
2013,08,23,06,08,17.90
2013,08,23,06,09,17.90
2013,08,23,06,10,18.00
2013,08,23,06,11,18.00
2013,08,23,06,12,18.00
2013,08,23,06,13,18.10
2013,08,23,06,14,18.10
2013,08,23,06,15,18.10
2013,08,23,06,16,18.10
2013,08,23,06,17,18.20
2013,08,23,06,18,18.10
2013,08,23,06,19,18.10
2013,08,23,06,20,18.10
2013,08,23,06,21,18.10
2013,08,23,06,22,18.10
2013,08,23,06,23,18.10
2013,08,23,06,24,18.00
2013,08,23,06,25,18.00
2013,08,23,06,26,18.00
2013,08,23,06,27,17.90
2013,08,23,06,28,17.90
2013,08,23,06,29,17.90
2013,08,23,06,30,17.90
2013,08,23,06,31,17.90
2013,08,23,06,32,17.90
2013,08,23,06,33,17.90
2013,08,23,06,34,17.90
2013,08,23,06,35,17.90
2013,08,23,06,36,18.00
2013,08,23,06,37,18.00
2013,08,23,06,38,18.00
2013,08,23,06,39,18.10
2013,08,23,06,40,18.10
2013,08,23,06,41,18.10
2013,08,23,06,42,18.10
2013,08,23,06,43,18.10
2013,08,23,06,44,18.10
2013,08,23,06,45,18.10
2013,08,23,06,46,18.10
2013,08,23,06,47,18.10
2013,08,23,06,48,18.10
2013,08,23,06,49,18.10
2013,08,23,06,50,18.10
2013,08,23,06,51,18.10
2013,08,23,06,52,18.10
2013,08,23,06,53,18.10
2013,08,23,06,54,18.10
2013,08,23,06,55,18.10
2013,08,23,06,56,18.10
2013,08,23,06,57,18.10
2013,08,23,06,58,18.10
2013,08,23,06,59,18.10
2013,08,23,07,00,18.10
2013,08,23,07,01,18.10
2013,08,23,07,02,18.10
2013,08,23,07,03,18.10
2013,08,23,07,04,18.10
2013,08,23,07,05,18.10
2013,08,23,07,06,18.10
2013,08,23,07,07,18.10
2013,08,23,07,08,18.20
2013,08,23,07,09,18.20
2013,08,23,07,10,18.20
2013,08,23,07,11,18.20
2013,08,23,07,12,18.20
2013,08,23,07,13,18.20
2013,08,23,07,14,18.20
2013,08,23,07,15,18.20
2013,08,23,07,16,18.20
2013,08,23,07,17,18.30
2013,08,23,07,18,18.30
2013,08,23,07,19,18.30
2013,08,23,07,20,18.30
2013,08,23,07,21,18.30
2013,08,23,07,22,18.30
2013,08,23,07,23,18.30
2013,08,23,07,24,18.30
2013,08,23,07,25,18.40
2013,08,23,07,26,18.40
2013,08,23,07,27,18.40
2013,08,23,07,28,18.40
2013,08,23,07,29,18.40
2013,08,23,07,30,18.40
2013,08,23,07,31,18.40
2013,08,23,07,32,18.40
2013,08,23,07,33,18.50
2013,08,23,07,34,18.50
2013,08,23,07,35,18.50
2013,08,23,07,36,18.50
2013,08,23,07,37,18.60
2013,08,23,07,38,18.60
2013,08,23,07,39,18.60
2013,08,23,07,40,18.60
2013,08,23,07,41,18.70
2013,08,23,07,42,18.70
2013,08,23,07,43,18.70
2013,08,23,07,44,18.70
2013,08,23,07,45,18.70
2013,08,23,07,46,18.70
2013,08,23,07,47,18.70
2013,08,23,07,48,18.80
2013,08,23,07,49,18.80
2013,08,23,07,50,18.80
2013,08,23,07,51,18.80
2013,08,23,07,52,18.80
2013,08,23,07,53,18.80
2013,08,23,07,54,18.90
2013,08,23,07,55,18.90
2013,08,23,07,56,18.90
2013,08,23,07,57,18.90
2013,08,23,07,58,18.90
2013,08,23,07,59,19.00
2013,08,23,08,00,19.00
2013,08,23,08,01,19.00
2013,08,23,08,02,19.10
2013,08,23,08,03,19.10
2013,08,23,08,04,19.10
2013,08,23,08,05,19.10
2013,08,23,08,06,19.10
2013,08,23,08,07,19.10
2013,08,23,08,08,19.10
2013,08,23,08,09,19.20
2013,08,23,08,10,19.20
2013,08,23,08,11,19.20
2013,08,23,08,12,19.20
2013,08,23,08,13,19.20
2013,08,23,08,14,19.30
2013,08,23,08,15,19.30
2013,08,23,08,16,19.30
2013,08,23,08,17,19.30
2013,08,23,08,18,19.30
2013,08,23,08,19,19.30
2013,08,23,08,20,19.40
2013,08,23,08,21,19.40
2013,08,23,08,22,19.40
2013,08,23,08,23,19.40
2013,08,23,08,24,19.40
2013,08,23,08,25,19.50
2013,08,23,08,26,19.50
2013,08,23,08,27,19.50
2013,08,23,08,28,19.60
2013,08,23,08,29,19.60
2013,08,23,08,30,19.60
2013,08,23,08,31,19.60
2013,08,23,08,32,19.70
2013,08,23,08,33,19.70
2013,08,23,08,34,19.70
2013,08,23,08,35,19.70
2013,08,23,08,36,19.70
2013,08,23,08,37,19.70
2013,08,23,08,38,19.70
2013,08,23,08,39,19.80
2013,08,23,08,40,19.80
2013,08,23,08,41,19.80
2013,08,23,08,42,19.80
2013,08,23,08,43,19.80
2013,08,23,08,44,19.80
2013,08,23,08,45,19.90
2013,08,23,08,46,19.90
2013,08,23,08,47,19.90
2013,08,23,08,48,19.90
2013,08,23,08,49,19.90
2013,08,23,08,50,19.90
2013,08,23,08,51,19.90
2013,08,23,08,52,19.90
2013,08,23,08,53,19.90
2013,08,23,08,54,19.90
2013,08,23,08,55,19.90
2013,08,23,08,56,19.90
2013,08,23,08,57,19.90
2013,08,23,08,58,19.90
2013,08,23,08,59,20.00
2013,08,23,09,00,20.00
2013,08,23,09,01,20.10
2013,08,23,09,02,20.10
2013,08,23,09,03,20.10
2013,08,23,09,04,20.20
2013,08,23,09,05,20.20
2013,08,23,09,06,20.20
2013,08,23,09,07,20.20
2013,08,23,09,08,20.20
2013,08,23,09,09,20.30
2013,08,23,09,10,20.30
2013,08,23,09,11,20.30
2013,08,23,09,12,20.30
2013,08,23,09,13,20.30
2013,08,23,09,14,20.30
2013,08,23,09,15,20.40
2013,08,23,09,16,20.40
2013,08,23,09,17,20.40
2013,08,23,09,18,20.40
2013,08,23,09,19,20.50
2013,08,23,09,20,20.50
2013,08,23,09,21,20.60
2013,08,23,09,22,20.60
2013,08,23,09,23,20.60
2013,08,23,09,24,20.60
2013,08,23,09,25,20.70
2013,08,23,09,26,20.70
2013,08,23,09,27,20.70
2013,08,23,09,28,20.80
2013,08,23,09,29,20.80
2013,08,23,09,30,20.80
2013,08,23,09,31,20.90
2013,08,23,09,32,20.90
2013,08,23,09,33,20.90
2013,08,23,09,34,20.90
2013,08,23,09,35,21.00
2013,08,23,09,36,21.00
2013,08,23,09,37,21.00
2013,08,23,09,38,21.10
2013,08,23,09,39,21.10
2013,08,23,09,40,21.10
2013,08,23,09,41,21.10
2013,08,23,09,42,21.10
2013,08,23,09,43,21.20
2013,08,23,09,44,21.20
2013,08,23,09,45,21.20
2013,08,23,09,46,21.30
2013,08,23,09,47,21.30
2013,08,23,09,48,21.40
2013,08,23,09,49,21.40
2013,08,23,09,50,21.50
2013,08,23,09,51,21.50
2013,08,23,09,52,21.50
2013,08,23,09,53,21.60
2013,08,23,09,54,21.60
2013,08,23,09,55,21.70
2013,08,23,09,56,21.70
2013,08,23,09,57,21.80
2013,08,23,09,58,21.80
2013,08,23,09,59,21.90
2013,08,23,10,00,22.00
2013,08,23,10,01,22.10
2013,08,23,10,02,22.10
2013,08,23,10,03,22.10
2013,08,23,10,04,22.20
2013,08,23,10,05,22.20
2013,08,23,10,06,22.20
2013,08,23,10,07,22.30
2013,08,23,10,08,22.30
2013,08,23,10,09,22.30
2013,08,23,10,10,22.40
2013,08,23,10,11,22.50
2013,08,23,10,12,22.50
2013,08,23,10,13,22.50
2013,08,23,10,14,22.60
2013,08,23,10,15,22.60
2013,08,23,10,16,22.70
2013,08,23,10,17,22.70
2013,08,23,10,18,22.70
2013,08,23,10,19,22.70
2013,08,23,10,20,22.80
2013,08,23,10,21,22.80
2013,08,23,10,22,22.90
2013,08,23,10,23,22.90
2013,08,23,10,24,22.90
2013,08,23,10,25,22.90
2013,08,23,10,26,22.90
2013,08,23,10,27,23.00
2013,08,23,10,28,23.00
2013,08,23,10,29,23.00
2013,08,23,10,30,23.10
2013,08,23,10,31,23.10
2013,08,23,10,32,23.20
2013,08,23,10,33,23.20
2013,08,23,10,34,23.20
2013,08,23,10,35,23.30
2013,08,23,10,36,23.30
2013,08,23,10,37,23.30
2013,08,23,10,38,23.30
2013,08,23,10,39,23.30
2013,08,23,10,40,23.30
2013,08,23,10,41,23.20
2013,08,23,10,42,23.20
2013,08,23,10,43,23.10
2013,08,23,10,44,23.10
2013,08,23,10,45,23.10
2013,08,23,10,46,23.10
2013,08,23,10,47,23.10
2013,08,23,10,48,23.20
2013,08,23,10,49,23.20
2013,08,23,10,50,23.30
2013,08,23,10,51,23.30
2013,08,23,10,52,23.40
2013,08,23,10,53,23.40
2013,08,23,10,54,23.50
2013,08,23,10,55,23.50
2013,08,23,10,56,23.50
2013,08,23,10,57,23.40
2013,08,23,10,58,23.30
2013,08,23,10,59,23.30
2013,08,23,11,00,23.30
2013,08,23,11,01,23.30
2013,08,23,11,02,23.30
2013,08,23,11,03,23.30
2013,08,23,11,04,23.30
2013,08,23,11,05,23.30
2013,08,23,11,06,23.30
2013,08,23,11,07,23.30
2013,08,23,11,08,23.30
2013,08,23,11,09,23.40
2013,08,23,11,10,23.40
2013,08,23,11,11,23.40
2013,08,23,11,12,23.50
2013,08,23,11,13,23.50
2013,08,23,11,14,23.60
2013,08,23,11,15,23.60
2013,08,23,11,16,23.60
2013,08,23,11,17,23.60
2013,08,23,11,18,23.70
2013,08,23,11,19,23.80
2013,08,23,11,20,23.80
2013,08,23,11,21,23.80
2013,08,23,11,22,23.80
2013,08,23,11,23,23.90
2013,08,23,11,24,23.90
2013,08,23,11,25,23.90
2013,08,23,11,26,24.00
2013,08,23,11,27,24.00
2013,08,23,11,28,24.10
2013,08,23,11,29,24.00
2013,08,23,11,30,23.90
2013,08,23,11,31,23.80
2013,08,23,11,32,23.80
2013,08,23,11,33,23.80
2013,08,23,11,34,23.80
2013,08,23,11,35,23.70
2013,08,23,11,36,23.70
2013,08,23,11,37,23.70
2013,08,23,11,38,23.60
2013,08,23,11,39,23.60
2013,08,23,11,40,23.60
2013,08,23,11,41,23.60
2013,08,23,11,42,23.40
2013,08,23,11,43,23.30
2013,08,23,11,44,23.20
2013,08,23,11,45,23.10
2013,08,23,11,46,23.10
2013,08,23,11,47,23.00
2013,08,23,11,48,23.00
2013,08,23,11,49,23.00
2013,08,23,11,50,23.10
2013,08,23,11,51,23.20
2013,08,23,11,52,23.30
2013,08,23,11,53,23.50
2013,08,23,11,54,23.60
2013,08,23,11,55,23.60
2013,08,23,11,56,23.70
2013,08,23,11,57,23.60
2013,08,23,11,58,23.50
2013,08,23,11,59,23.40
2013,08,23,12,00,23.40
2013,08,23,12,01,23.30
2013,08,23,12,02,23.20
2013,08,23,12,03,23.10
2013,08,23,12,04,23.10
2013,08,23,12,05,23.10
2013,08,23,12,06,23.20
2013,08,23,12,07,23.20
2013,08,23,12,08,23.20
2013,08,23,12,09,23.20
2013,08,23,12,10,23.20
2013,08,23,12,11,23.20
2013,08,23,12,12,23.20
2013,08,23,12,13,23.20
2013,08,23,12,14,23.10
2013,08,23,12,15,23.10
2013,08,23,12,16,23.10
2013,08,23,12,17,23.20
2013,08,23,12,18,23.20
2013,08,23,12,19,23.30
2013,08,23,12,20,23.30
2013,08,23,12,21,23.40
2013,08,23,12,22,23.50
2013,08,23,12,23,23.60
2013,08,23,12,24,23.60
2013,08,23,12,25,23.70
2013,08,23,12,26,23.70
2013,08,23,12,27,23.70
2013,08,23,12,28,23.70
2013,08,23,12,29,23.70
2013,08,23,12,30,23.80
2013,08,23,12,31,23.80
2013,08,23,12,32,23.90
2013,08,23,12,33,23.90
2013,08,23,12,34,23.90
2013,08,23,12,35,23.80
2013,08,23,12,36,23.60
2013,08,23,12,37,23.60
2013,08,23,12,38,23.60
2013,08,23,12,39,23.60
2013,08,23,12,40,23.60
2013,08,23,12,41,23.70
2013,08,23,12,42,23.70
2013,08,23,12,43,23.70
2013,08,23,12,44,23.70
2013,08,23,12,45,23.70
2013,08,23,12,46,23.70
2013,08,23,12,47,23.70
2013,08,23,12,48,23.70
2013,08,23,12,49,23.60
2013,08,23,12,50,23.60
2013,08,23,12,51,23.60
2013,08,23,12,52,23.60
2013,08,23,12,53,23.70
2013,08,23,12,54,23.70
2013,08,23,12,55,23.60
2013,08,23,12,56,23.60
2013,08,23,12,57,23.50
2013,08,23,12,58,23.50
2013,08,23,12,59,23.40
2013,08,23,13,00,23.40
2013,08,23,13,01,23.30
2013,08,23,13,02,23.20
2013,08,23,13,03,23.20
2013,08,23,13,04,23.20
2013,08,23,13,05,23.20
2013,08,23,13,06,23.20
2013,08,23,13,07,23.20
2013,08,23,13,08,23.20
2013,08,23,13,09,23.20
2013,08,23,13,10,23.20
2013,08,23,13,11,23.20
2013,08,23,13,12,23.20
2013,08,23,13,13,23.10
2013,08,23,13,14,23.10
2013,08,23,13,15,23.10
2013,08,23,13,16,23.10
2013,08,23,13,17,23.10
2013,08,23,13,18,23.10
2013,08,23,13,19,23.10
2013,08,23,13,20,23.10
2013,08,23,13,21,23.10
2013,08,23,13,22,23.10
2013,08,23,13,23,23.10
2013,08,23,13,24,23.10
2013,08,23,13,25,23.20
2013,08,23,13,26,23.20
2013,08,23,13,27,23.20
2013,08,23,13,28,23.20
2013,08,23,13,29,23.20
2013,08,23,13,30,23.20
2013,08,23,13,31,23.20
2013,08,23,13,32,23.20
2013,08,23,13,33,23.30
2013,08,23,13,34,23.40
2013,08,23,13,35,23.40
2013,08,23,13,36,23.40
2013,08,23,13,37,23.50
2013,08,23,13,38,23.50
2013,08,23,13,39,23.60
2013,08,23,13,40,23.60
2013,08,23,13,41,23.60
2013,08,23,13,42,23.60
2013,08,23,13,43,23.60
2013,08,23,13,44,23.70
2013,08,23,13,45,23.70
2013,08,23,13,46,23.70
2013,08,23,13,47,23.60
2013,08,23,13,48,23.60
2013,08,23,13,49,23.60
2013,08,23,13,50,23.60
2013,08,23,13,51,23.60
2013,08,23,13,52,23.50
2013,08,23,13,53,23.50
2013,08,23,13,54,23.40
2013,08,23,13,55,23.30
2013,08,23,13,56,23.30
2013,08,23,13,57,23.30
2013,08,23,13,58,23.30
2013,08,23,13,59,23.30
2013,08,23,14,00,23.30
2013,08,23,14,01,23.40
2013,08,23,14,02,23.50
2013,08,23,14,03,23.50
2013,08,23,14,04,23.40
2013,08,23,14,05,23.40
2013,08,23,14,06,23.40
2013,08,23,14,07,23.40
2013,08,23,14,08,23.30
2013,08,23,14,09,23.30
2013,08,23,14,10,23.30
2013,08,23,14,11,23.30
2013,08,23,14,12,23.30
2013,08,23,14,13,23.30
2013,08,23,14,14,23.20
2013,08,23,14,15,23.20
2013,08,23,14,16,23.20
2013,08,23,14,17,23.20
2013,08,23,14,18,23.20
2013,08,23,14,19,23.20
2013,08,23,14,20,23.20
2013,08,23,14,21,23.20
2013,08,23,14,22,23.20
2013,08,23,14,23,23.20
2013,08,23,14,24,23.20
2013,08,23,14,25,23.20
2013,08,23,14,26,23.20
2013,08,23,14,27,23.20
2013,08,23,14,28,23.30
2013,08,23,14,29,23.40
2013,08,23,14,30,23.50
2013,08,23,14,31,23.60
2013,08,23,14,32,23.70
2013,08,23,14,33,23.80
2013,08,23,14,34,23.80
2013,08,23,14,35,23.70
2013,08,23,14,36,23.70
2013,08,23,14,37,23.70
2013,08,23,14,38,23.70
2013,08,23,14,39,23.60
2013,08,23,14,40,23.60
2013,08,23,14,41,23.60
2013,08,23,14,42,23.60
2013,08,23,14,43,23.60
2013,08,23,14,44,23.70
2013,08,23,14,45,23.70
2013,08,23,14,46,23.80
2013,08,23,14,47,23.90
2013,08,23,14,48,23.90
2013,08,23,14,49,24.00
2013,08,23,14,50,24.00
2013,08,23,14,51,24.10
2013,08,23,14,52,24.10
2013,08,23,14,53,24.10
2013,08,23,14,54,24.00
2013,08,23,14,55,24.00
2013,08,23,14,56,24.00
2013,08,23,14,57,24.00
2013,08,23,14,58,24.00
2013,08,23,14,59,24.00
2013,08,23,15,00,23.90
2013,08,23,15,01,23.90
2013,08,23,15,02,23.90
2013,08,23,15,03,23.90
2013,08,23,15,04,23.90
2013,08,23,15,05,23.90
2013,08,23,15,06,23.90
2013,08,23,15,07,23.90
2013,08,23,15,08,24.00
2013,08,23,15,09,24.00
2013,08,23,15,10,24.00
2013,08,23,15,11,23.90
2013,08,23,15,12,23.80
2013,08,23,15,13,23.70
2013,08,23,15,14,23.70
2013,08,23,15,15,23.60
2013,08,23,15,16,23.50
2013,08,23,15,17,23.50
2013,08,23,15,18,23.50
2013,08,23,15,19,23.50
2013,08,23,15,20,23.40
2013,08,23,15,21,23.50
2013,08,23,15,22,23.50
2013,08,23,15,23,23.50
2013,08,23,15,24,23.50
2013,08,23,15,25,23.50
2013,08,23,15,26,23.40
2013,08,23,15,27,23.30
2013,08,23,15,28,23.30
2013,08,23,15,29,23.20
2013,08,23,15,30,23.20
2013,08,23,15,31,23.20
2013,08,23,15,32,23.20
2013,08,23,15,33,23.20
2013,08,23,15,34,23.10
2013,08,23,15,35,23.20
2013,08,23,15,36,23.20
2013,08,23,15,37,23.10
2013,08,23,15,38,23.10
2013,08,23,15,39,23.00
2013,08,23,15,40,22.90
2013,08,23,15,41,22.90
2013,08,23,15,42,22.90
2013,08,23,15,43,22.90
2013,08,23,15,44,22.90
2013,08,23,15,45,22.90
2013,08,23,15,46,22.90
2013,08,23,15,47,22.90
2013,08,23,15,48,22.90
2013,08,23,15,49,22.90
2013,08,23,15,50,22.80
2013,08,23,15,51,22.80
2013,08,23,15,52,22.80
2013,08,23,15,53,22.80
2013,08,23,15,54,22.80
2013,08,23,15,55,22.80
2013,08,23,15,56,22.80
2013,08,23,15,57,22.80
2013,08,23,15,58,22.80
2013,08,23,15,59,22.80
2013,08,23,16,00,22.80
2013,08,23,16,01,22.90
2013,08,23,16,02,22.80
2013,08,23,16,03,22.80
2013,08,23,16,04,22.80
2013,08,23,16,05,22.80
2013,08,23,16,06,22.80
2013,08,23,16,07,22.80
2013,08,23,16,08,22.80
2013,08,23,16,09,22.70
2013,08,23,16,10,22.70
2013,08,23,16,11,22.70
2013,08,23,16,12,22.70
2013,08,23,16,13,22.70
2013,08,23,16,14,22.70
2013,08,23,16,15,22.70
2013,08,23,16,16,22.70
2013,08,23,16,17,22.70
2013,08,23,16,18,22.70
2013,08,23,16,19,22.70
2013,08,23,16,20,22.70
2013,08,23,16,21,22.70
2013,08,23,16,22,22.70
2013,08,23,16,23,22.70
2013,08,23,16,24,22.70
2013,08,23,16,25,22.60
2013,08,23,16,26,22.60
2013,08,23,16,27,22.60
2013,08,23,16,28,22.60
2013,08,23,16,29,22.60
2013,08,23,16,30,22.60
2013,08,23,16,31,22.60
2013,08,23,16,32,22.60
2013,08,23,16,33,22.60
2013,08,23,16,34,22.60
2013,08,23,16,35,22.50
2013,08,23,16,36,22.50
2013,08,23,16,37,22.50
2013,08,23,16,38,22.50
2013,08,23,16,39,22.50
2013,08,23,16,40,22.50
2013,08,23,16,41,22.50
2013,08,23,16,42,22.60
2013,08,23,16,43,22.50
2013,08,23,16,44,22.50
2013,08,23,16,45,22.50
2013,08,23,16,46,22.40
2013,08,23,16,47,22.40
2013,08,23,16,48,22.40
2013,08,23,16,49,22.40
2013,08,23,16,50,22.40
2013,08,23,16,51,22.40
2013,08,23,16,52,22.30
2013,08,23,16,53,22.30
2013,08,23,16,54,22.30
2013,08,23,16,55,22.30
2013,08,23,16,56,22.20
2013,08,23,16,57,22.20
2013,08,23,16,58,22.20
2013,08,23,16,59,22.20
2013,08,23,17,00,22.20
2013,08,23,17,01,22.20
2013,08,23,17,02,22.20
2013,08,23,17,03,22.20
2013,08,23,17,04,22.20
2013,08,23,17,05,22.20
2013,08,23,17,06,22.20
2013,08,23,17,07,22.10
2013,08,23,17,08,22.10
2013,08,23,17,09,22.10
2013,08,23,17,10,22.10
2013,08,23,17,11,22.10
2013,08,23,17,12,22.10
2013,08,23,17,13,22.10
2013,08,23,17,14,22.10
2013,08,23,17,15,22.10
2013,08,23,17,16,22.10
2013,08,23,17,17,22.10
2013,08,23,17,18,22.00
2013,08,23,17,19,22.00